• In Uzbekistan
  • List of Countries
  • For 7 days
  • Water Temperature
  • Satellite Maps
  • Weather Map
  • Weather Widgets
  • user-avatar
    Login

    Hourly Weather Sevan

    Today, 22 June, Thursday

    Time Temperature Precipitation Wind Pressure Humidity
    00:00 +14°C° 0.6 mm 2 mps 638 mmHg 82%
    01:00 +14°C° 0.6 mm 2 mps 638 mmHg 83%
    02:00 +14°C° 0.6 mm 1 mps 638 mmHg 84%
    03:00 +14°C° 0 mm 2 mps 637 mmHg 87%
    04:00 +14°C° 0.5 mm 2 mps 638 mmHg 86%
    05:00 +14°C° 0.5 mm 1 mps 638 mmHg 85%
    06:00 +14°C° 0.5 mm 1 mps 638 mmHg 84%
    07:00 +16°C° 0.3 mm 1 mps 639 mmHg 76%
    08:00 +18°C° 0.3 mm 1 mps 639 mmHg 69%
    09:00 +20°C° 0 mm 1 mps 639 mmHg 61%
    10:00 +20°C° 0.7 mm 1 mps 639 mmHg 61%
    11:00 +20°C° 0.7 mm 1 mps 639 mmHg 61%
    12:00 +21°C° 0.7 mm 1 mps 639 mmHg 61%
    13:00 +20°C° 0.9 mm 2 mps 639 mmHg 62%
    14:00 +20°C° 0.9 mm 2 mps 639 mmHg 64%
    15:00 +19°C° 0 mm 2 mps 639 mmHg 67%
    16:00 +18°C° 0.4 mm 2 mps 640 mmHg 68%
    17:00 +18°C° 0.4 mm 2 mps 640 mmHg 68%
    18:00 +19°C° 0.4 mm 1 mps 640 mmHg 69%
    19:00 +16°C° 0.1 mm 1 mps 640 mmHg 74%
    20:00 +14°C° 0.1 mm 2 mps 640 mmHg 79%
    21:00 +13°C° 0.1 mm 2 mps 640 mmHg 83%
    22:00 +12°C° 0 mm 1 mps 640 mmHg 85%
    23:00 +12°C° 0 mm 1 mps 640 mmHg 86%

    Tomorrow, 23 June, Friday

    Time Temperature Precipitation Wind Pressure Humidity
    00:00 +11°C° 0 mm 1 mps 640 mmHg 88%
    01:00 +11°C° 0 mm 1 mps 640 mmHg 88%
    02:00 +10°C° 0 mm 1 mps 640 mmHg 89%
    03:00 +10°C° 0 mm 1 mps 640 mmHg 90%
    04:00 +11°C° 0 mm 1 mps 641 mmHg 87%
    05:00 +12°C° 0 mm 1 mps 641 mmHg 83%
    06:00 +13°C° 0 mm 1 mps 642 mmHg 79%
    07:00 +15°C° 0 mm 1 mps 642 mmHg 69%
    08:00 +19°C° 0 mm 1 mps 643 mmHg 59%
    09:00 +21°C° 0 mm 1 mps 644 mmHg 49%
    10:00 +22°C° 0 mm 1 mps 644 mmHg 45%
    11:00 +23°C° 0 mm 1 mps 644 mmHg 41%
    12:00 +24°C° 0 mm 1 mps 644 mmHg 38%
    13:00 +24°C° 0.2 mm 1 mps 643 mmHg 40%
    14:00 +24°C° 0.2 mm 1 mps 643 mmHg 42%
    15:00 +25°C° 0.2 mm 1 mps 643 mmHg 44%
    16:00 +24°C° 0.6 mm 1 mps 643 mmHg 49%
    17:00 +23°C° 0.6 mm 1 mps 643 mmHg 54%
    18:00 +22°C° 0.6 mm 1 mps 642 mmHg 59%
    19:00 +18°C° 0.4 mm 2 mps 642 mmHg 66%
    20:00 +16°C° 0.4 mm 2 mps 642 mmHg 73%
    21:00 +14°C° 0.4 mm 2 mps 642 mmHg 80%
    22:00 +13°C° 0.1 mm 2 mps 642 mmHg 81%
    23:00 +13°C° 0.1 mm 2 mps 642 mmHg 83%

    Day after tomorrow, 24 June, Saturday

    Time Temperature Precipitation Wind Pressure Humidity
    00:00 +12°C° 0.1 mm 1 mps 642 mmHg 84%
    01:00 +12°C° 0 mm 1 mps 642 mmHg 86%
    02:00 +11°C° 0 mm 1 mps 642 mmHg 87%
    03:00 +11°C° 0 mm 1 mps 641 mmHg 88%
    04:00 +12°C° 0 mm 1 mps 642 mmHg 85%
    05:00 +13°C° 0 mm 1 mps 642 mmHg 83%
    06:00 +14°C° 0 mm 1 mps 642 mmHg 80%
    07:00 +16°C° 0 mm 1 mps 643 mmHg 69%
    08:00 +20°C° 0 mm 1 mps 644 mmHg 57%
    09:00 +22°C° 0 mm 1 mps 644 mmHg 46%
    10:00 +24°C° 0 mm 1 mps 644 mmHg 41%
    11:00 +26°C° 0 mm 1 mps 644 mmHg 36%
    12:00 +27°C° 0 mm 1 mps 644 mmHg 31%
    13:00 +27°C° 0 mm 1 mps 644 mmHg 30%
    14:00 +28°C° 0 mm 1 mps 643 mmHg 29%
    15:00 +28°C° 0 mm 1 mps 643 mmHg 29%
    16:00 +27°C° 0 mm 1 mps 643 mmHg 33%
    17:00 +26°C° 0 mm 1 mps 642 mmHg 38%
    18:00 +25°C° 0 mm 1 mps 642 mmHg 42%
    19:00 +22°C° 0 mm 1 mps 641 mmHg 51%
    20:00 +19°C° 0 mm 1 mps 641 mmHg 61%
    21:00 +16°C° 0 mm 1 mps 640 mmHg 70%
    22:00 +15°C° 0 mm 1 mps 640 mmHg 75%
    23:00 +15°C° 0 mm 1 mps 640 mmHg 79%

    25 June, Sunday

    Time Temperature Precipitation Wind Pressure Humidity
    00:00 +14°C° 0 mm 2 mps 641 mmHg 83%
    01:00 +14°C° 0.1 mm 1 mps 640 mmHg 85%
    02:00 +13°C° 0.1 mm 1 mps 640 mmHg 86%
    03:00 +13°C° 0.1 mm 1 mps 640 mmHg 87%
    04:00 +14°C° 0 mm 1 mps 641 mmHg 84%
    05:00 +15°C° 0 mm 1 mps 641 mmHg 80%
    06:00 +16°C° 0 mm 1 mps 642 mmHg 76%
    07:00 +20°C° 0 mm 1 mps 642 mmHg 66%
    08:00 +22°C° 0 mm 1 mps 643 mmHg 55%
    09:00 +25°C° 0 mm 1 mps 644 mmHg 44%
    10:00 +26°C° 0 mm 1 mps 644 mmHg 40%
    11:00 +27°C° 0 mm 1 mps 644 mmHg 36%
    12:00 +28°C° 0 mm 1 mps 644 mmHg 32%
    13:00 +28°C° 0.2 mm 1 mps 643 mmHg 33%
    14:00 +28°C° 0.2 mm 2 mps 643 mmHg 34%
    15:00 +28°C° 0.2 mm 2 mps 643 mmHg 35%
    16:00 +27°C° 0.1 mm 2 mps 643 mmHg 38%
    17:00 +26°C° 0.1 mm 2 mps 643 mmHg 41%
    18:00 +25°C° 0.1 mm 2 mps 643 mmHg 44%
    19:00 +23°C° 0.1 mm 2 mps 642 mmHg 55%
    20:00 +19°C° 0.1 mm 2 mps 642 mmHg 65%
    21:00 +17°C° 0.1 mm 2 mps 642 mmHg 76%
    22:00 +16°C° 0 mm 2 mps 642 mmHg 77%
    23:00 +15°C° 0 mm 2 mps 642 mmHg 79%

    26 June, Monday

    Time Temperature Precipitation Wind Pressure Humidity
    00:00 +15°C° 0 mm 2 mps 642 mmHg 80%
    01:00 +14°C° 0 mm 1 mps 642 mmHg 80%
    02:00 +14°C° 0 mm 1 mps 642 mmHg 80%
    03:00 +13°C° 0 mm 1 mps 642 mmHg 80%
    04:00 +14°C° 0 mm 1 mps 642 mmHg 77%
    05:00 +15°C° 0 mm 1 mps 643 mmHg 74%
    06:00 +16°C° 0 mm 1 mps 643 mmHg 71%
    07:00 +20°C° 0 mm 1 mps 644 mmHg 61%
    08:00 +22°C° 0 mm 1 mps 645 mmHg 51%
    09:00 +25°C° 0 mm 1 mps 645 mmHg 41%
    10:00 +26°C° 0 mm 1 mps 645 mmHg 38%
    11:00 +28°C° 0 mm 1 mps 646 mmHg 34%
    12:00 +29°C° 0 mm 2 mps 646 mmHg 31%
    13:00 +29°C° 0 mm 2 mps 645 mmHg 31%
    14:00 +30°C° 0 mm 2 mps 645 mmHg 31%
    15:00 +30°C° 0 mm 2 mps 645 mmHg 31%
    16:00 +29°C° 0 mm 1 mps 645 mmHg 35%
    17:00 +28°C° 0 mm 1 mps 644 mmHg 39%
    18:00 +27°C° 0 mm 1 mps 644 mmHg 44%
    19:00 +24°C° 0 mm 2 mps 644 mmHg 55%
    20:00 +20°C° 0 mm 2 mps 643 mmHg 66%
    21:00 +18°C° 0 mm 2 mps 643 mmHg 77%
    22:00 +17°C° 0.1 mm 2 mps 643 mmHg 78%
    23:00 +16°C° 0.1 mm 2 mps 643 mmHg 80%

    27 June, Tuesday

    Time Temperature Precipitation Wind Pressure Humidity
    00:00 +16°C° 0.1 mm 2 mps 643 mmHg 81%
    01:00 +15°C° 0 mm 2 mps 643 mmHg 82%
    02:00 +15°C° 0 mm 1 mps 643 mmHg 83%
    03:00 +14°C° 0 mm 1 mps 643 mmHg 84%
    04:00 +16°C° 0 mm 1 mps 643 mmHg 81%
    05:00 +18°C° 0 mm 1 mps 644 mmHg 79%
    06:00 +19°C° 0 mm 1 mps 644 mmHg 76%
    07:00 +21°C° 0 mm 1 mps 645 mmHg 64%
    08:00 +24°C° 0 mm 1 mps 645 mmHg 53%
    09:00 +27°C° 0 mm 1 mps 646 mmHg 42%
    10:00 +28°C° 0 mm 1 mps 646 mmHg 38%
    11:00 +30°C° 0 mm 1 mps 646 mmHg 34%
    12:00 +31°C° 0 mm 1 mps 646 mmHg 30%
    13:00 +31°C° 0.1 mm 1 mps 645 mmHg 31%
    14:00 +31°C° 0.1 mm 1 mps 645 mmHg 32%
    15:00 +31°C° 0.1 mm 1 mps 645 mmHg 33%
    16:00 +30°C° 0.2 mm 1 mps 644 mmHg 38%
    17:00 +29°C° 0.2 mm 1 mps 644 mmHg 43%
    18:00 +28°C° 0.2 mm 2 mps 643 mmHg 48%
    19:00 +25°C° 0.1 mm 2 mps 643 mmHg 57%
    20:00 +23°C° 0.1 mm 2 mps 643 mmHg 66%
    21:00 +19°C° 0.1 mm 2 mps 642 mmHg 75%
    22:00 +18°C° 0 mm 2 mps 642 mmHg 76%
    23:00 +18°C° 0 mm 2 mps 642 mmHg 77%
    Show more